Showing default

JASON 3, 41240

Orbit data source: Space-Track

JASON 3, 41240 is an American payload satellite in LEO that was launched on Sun, 17 Jan 2016 UTC via an FALCON 9 launch vehicle from the Air Force Western Test Range (AFWTR). Payload-class satellites include a variety of spacecraft equipped with specific instruments for various scientific and technological missions. These include communications satellites like Starlink; space stations such as the ISS; scientific satellites like the Hubble; Earth observation satellites from companies like Planet Labs, Umbra, and HawkEye 360; GPS; miniature CubeSats for education and research; and military/defense satellites.

Loading next visibility...
Identifier
41240, 2016-002A
Orbit
LEO
Country
Flag of USUS
Related business
Manufacturer
Thales Alenia
Mission
Partially operational Civil Sci/Met
Bus & Motor
PROTEUS, AOCS
Mass
553 kg wet, 525 kg dry
Launch date (UTC)
2016-01-17 (10 years ago)
Launch vehicle
FALCON 9
Launch site
Air Force Western Test Range (AFWTR)
Object type
Payload
Rocket body
Debris
Shape & HBR
Box + 2 Pan, 15.7 m
Radar Cross Section
12.823 m², Large (>1 m²)

Expand to show TLE details & history
Last TLE update: 19 hours ago

TLE from 19 hours ago
0 JASON 3
1 41240U 16002A   25287.95408555 -.00000025  00000-0  14531-3 0  9990
2 41240  66.0402 281.4151 0007894 266.9736  93.0379 12.87625785455679
Epoch: 2025-10-14T22:53Z
TLE epoch observation values (Epoch: 2025-10-14T22:53:52.991Z)
Latitude
-0.00006°
Longitude
-85.79083°
Altitude
1,313.204 km
Speed
7.201 km/s
True Right ascension
18h 45m 39s
True Declination
0° 00' 00"
Sunlit
Object was in daylight at epoch
Visualization orbit readout
Latitude
Unknown
Longitude
Unknown
Altitude
Unknown
Speed
Unknown
Apparent Right ascension
Unknown
Apparent Declination
Unknown
Sunlit
N/A
Visualization observer readout
Local Sidereal Time
12:02:33
Azimuth
Unknown
Elevation
Unknown
Doppler factor
Unknown
Orbital elements
Apogee altitude
1,315.588 km
Perigee altitude
1,303.45 km
Semi-major axis
7,687.656 km
Eccentricity
0.00079
Inclination
66.0402°
RAAN
281.4151°
Arg. of periapsis
266.9736°
True anomaly
93.12823°
Mean anomaly
93.0379°
Eccentric anomaly
93.08306°
Mean motion
3.21997 °/min
Orbital period
111.8 mins
BSTAR
0.00014531
Loading maneuver chart data...
Computing Atmospheric mass density...
Loading historical data...
Loading historical data...
Loading historical data...
Loading historical data...
Loading historical data...
Loading historical data...
Loading historical data...
Other satellites on launch #2 in the year 2016 (2016-01-17 UTC)

Documentation

Showing up to 5 results
|